| time (UTC) | temp F | wind direction | speed MPH | gust MPH | rain 1hr in | rain 24hr in | rain mn in | humidity % | barometer mb |
| 20260905202331 | 65 | 355 | 0.0 | 5.0 | 0.00 | 0.09 | 0.00 | 73 | 1012.6 |
| 20260905201331 | 65 | 337 | 0.0 | 6.0 | 0.00 | 0.09 | 0.00 | 74 | 1012.9 |
| 20260905200352 | 64 | 275 | 0.0 | 5.0 | 0.00 | 0.09 | 0.00 | 74 | 1012.9 |
| 20260905195330 | 63 | 225 | 0.0 | 3.0 | 0.00 | 0.09 | 0.00 | 77 | 1013.1 |
| 20260905194329 | 62 | 305 | 2.0 | 6.0 | 0.00 | 0.09 | 0.00 | 76 | 1013.0 |
| 20260905193329 | 62 | 261 | 0.0 | 2.0 | 0.00 | 0.09 | 0.00 | 77 | 1013.0 |
| 20260905192329 | 61 | 303 | 0.0 | 4.0 | 0.00 | 0.09 | 0.00 | 79 | 1013.5 |
| 20260905191313 | 60 | 267 | 0.0 | 1.0 | 0.00 | 0.09 | 0.00 | 81 | 1013.5 |
| 20260905190349 | 60 | 248 | 0.0 | 0.0 | 0.00 | 0.09 | 0.00 | 81 | 1013.5 |
| 20260905185331 | 60 | 248 | 0.0 | 1.0 | 0.00 | 0.09 | 0.00 | 80 | 1013.5 |
| 20260905184331 | 59 | 278 | 0.0 | 4.0 | 0.00 | 0.09 | 0.00 | 81 | 1013.7 |
| 20260905183331 | 59 | 252 | 0.0 | 4.0 | 0.00 | 0.09 | 0.00 | 82 | 1013.7 |
| 20260905182331 | 59 | 290 | 0.0 | 3.0 | 0.00 | 0.09 | 0.00 | 84 | 1013.7 |
| 20260905181329 | 58 | 273 | 0.0 | 4.0 | 0.00 | 0.09 | 0.00 | 87 | 1013.8 |
| 20260905180349 | 58 | 329 | 0.0 | 1.0 | 0.00 | 0.09 | 0.00 | 86 | 1013.8 |
| 20260905175327 | 57 | 329 | 0.0 | 1.0 | 0.00 | 0.09 | 0.00 | 88 | 1014.0 |
| 20260905174326 | 57 | 260 | 0.0 | 4.0 | 0.00 | 0.09 | 0.00 | 89 | 1014.0 |
| 20260905173325 | 57 | 256 | 0.0 | 0.0 | 0.00 | 0.09 | 0.00 | 90 | 1014.0 |
| 20260905172323 | 56 | 256 | 0.0 | 0.0 | 0.00 | 0.09 | 0.00 | 91 | 1014.0 |
| 20260905171345 | 56 | 255 | 0.0 | 3.0 | 0.00 | 0.09 | 0.00 | 91 | 1013.6 |
| 20260905170343 | 55 | 17 | 0.0 | 0.0 | 0.00 | 0.09 | 0.00 | 92 | 1013.6 |
| 20260905165322 | 55 | 27 | 0.0 | 0.0 | 0.00 | 0.09 | 0.00 | 92 | 1013.6 |
| 20260905164321 | 55 | 28 | 0.0 | 0.0 | 0.00 | 0.09 | 0.00 | 93 | 1013.8 |
| 20260905163320 | 55 | 28 | 0.0 | 0.0 | 0.00 | 0.09 | 0.00 | 94 | 1013.8 |
| 20260905162319 | 55 | 28 | 0.0 | 0.0 | 0.00 | 0.09 | 0.00 | 95 | 1013.7 |
| 20260905161323 | 55 | 28 | 0.0 | 1.0 | 0.00 | 0.09 | 0.00 | 96 | 1013.9 |
| 20260905160322 | 54 | 28 | 0.0 | 0.0 | 0.00 | 0.09 | 0.00 | 97 | 1013.9 |
| 20260905155339 | 54 | 28 | 0.0 | 0.0 | 0.00 | 0.09 | 0.00 | 97 | 1014.0 |
| 20260905154317 | 54 | 319 | 0.0 | 0.0 | 0.00 | 0.09 | 0.00 | 98 | 1014.1 |
| 20260905153338 | 54 | 318 | 0.0 | 1.0 | 0.00 | 0.09 | 0.00 | 98 | 1014.1 |
| 20260905152316 | 54 | 321 | 0.0 | 0.0 | 0.00 | 0.09 | 0.00 | 98 | 1014.0 |
| 20260905151314 | 54 | 321 | 0.0 | 0.0 | 0.00 | 0.09 | 0.00 | 98 | 1014.0 |
| 20260905150315 | 54 | 321 | 0.0 | 0.0 | 0.00 | 0.09 | 0.00 | 98 | 1014.0 |
| 20260905145333 | 54 | 321 | 0.0 | 0.0 | 0.00 | 0.09 | 0.00 | 98 | 1014.0 |
| 20260905144313 | 53 | 321 | 0.0 | 0.0 | 0.00 | 0.09 | 0.00 | 98 | 1013.9 |
| 20260905143333 | 53 | 321 | 0.0 | 2.0 | 0.00 | 0.09 | 0.00 | 98 | 1013.9 |
| 20260905142331 | 53 | 323 | 0.0 | 6.0 | 0.00 | 0.09 | 0.00 | 98 | 1014.0 |
| 20260905141330 | 53 | 331 | 0.0 | 1.0 | 0.00 | 0.09 | 0.00 | 98 | 1014.0 |
| 20260905140331 | 53 | 331 | 0.0 | 4.0 | 0.00 | 0.09 | 0.00 | 98 | 1014.0 |
| 20260905135331 | 53 | 340 | 0.0 | 5.0 | 0.00 | 0.09 | 0.00 | 98 | 1013.7 |
| 20260905134312 | 53 | 304 | 3.0 | 6.0 | 0.00 | 0.09 | 0.00 | 97 | 1013.5 |
| 20260905133331 | 53 | 327 | 0.0 | 2.0 | 0.00 | 0.09 | 0.00 | 97 | 1013.5 |
| 20260905132314 | 53 | 275 | 0.0 | 0.0 | 0.00 | 0.09 | 0.00 | 97 | 1013.5 |
| 20260905131314 | 53 | 275 | 0.0 | 1.0 | 0.00 | 0.09 | 0.00 | 97 | 1013.5 |
| 20260905130315 | 54 | 329 | 1.0 | 5.0 | 0.00 | 0.09 | 0.00 | 97 | 1013.5 |
| 20260905125314 | 54 | 294 | 0.0 | 4.0 | 0.00 | 0.09 | 0.00 | 97 | 1013.5 |
| 20260905124314 | 54 | 304 | 0.0 | 1.0 | 0.00 | 0.09 | 0.00 | 97 | 1013.5 |
| 20260905123315 | 54 | 304 | 0.0 | 0.0 | 0.00 | 0.09 | 0.00 | 97 | 1013.5 |
| 20260905122312 | 54 | 304 | 0.0 | 1.0 | 0.00 | 0.09 | 0.00 | 97 | 1013.5 |
| 20260905121333 | 55 | 304 | 0.0 | 0.0 | 0.00 | 0.09 | 0.00 | 97 | 1013.5 |
| 20260905120312 | 55 | 304 | 0.0 | 0.0 | 0.00 | 0.09 | 0.00 | 97 | 1013.5 |
| 20260905115311 | 55 | 304 | 0.0 | 0.0 | 0.00 | 0.11 | 0.00 | 97 | 1013.5 |
| 20260905114329 | 55 | 304 | 0.0 | 3.0 | 0.00 | 0.11 | 0.00 | 96 | 1013.5 |
| 20260905113329 | 55 | 302 | 0.0 | 0.0 | 0.00 | 0.11 | 0.00 | 97 | 1013.5 |
| 20260905112328 | 55 | 302 | 0.0 | 0.0 | 0.00 | 0.11 | 0.00 | 97 | 1013.4 |
| 20260905111325 | 55 | 302 | 0.0 | 0.0 | 0.00 | 0.11 | 0.00 | 97 | 1013.4 |
| 20260905110326 | 55 | 302 | 0.0 | 0.0 | 0.00 | 0.11 | 0.00 | 97 | 1013.4 |
| 20260905105328 | 55 | 302 | 0.0 | 0.0 | 0.00 | 0.16 | 0.00 | 97 | 1013.5 |
| 20260905104348 | 55 | 302 | 0.0 | 0.0 | 0.00 | 0.16 | 0.00 | 98 | 1013.5 |
| 20260905103328 | 55 | 302 | 0.0 | 0.0 | 0.00 | 0.16 | 0.00 | 98 | 1013.5 |
| 20260905102328 | 55 | 302 | 0.0 | 0.0 | 0.00 | 0.16 | 0.00 | 98 | 1013.5 |
| 20260905101327 | 55 | 302 | 0.0 | 0.0 | 0.00 | 0.16 | 0.00 | 98 | 1013.4 |
| 20260905100348 | 55 | 302 | 0.0 | 0.0 | 0.00 | 0.16 | 0.00 | 97 | 1013.4 |
| 20260905095326 | 55 | 302 | 0.0 | 0.0 | 0.00 | 0.18 | 0.00 | 98 | 1013.5 |
| 20260905094326 | 55 | 302 | 0.0 | 0.0 | 0.00 | 0.18 | 0.00 | 98 | 1013.5 |
| 20260905093345 | 55 | 302 | 0.0 | 0.0 | 0.00 | 0.18 | 0.00 | 97 | 1013.5 |
| 20260905092323 | 55 | 302 | 0.0 | 2.0 | 0.00 | 0.18 | 0.00 | 97 | 1013.4 |
| 20260905091324 | 56 | 302 | 0.0 | 0.0 | 0.00 | 0.18 | 0.00 | 97 | 1013.1 |
| 20260905090345 | 56 | 302 | 0.0 | 1.0 | 0.00 | 0.18 | 0.00 | 97 | 1013.1 |
| 20260905085322 | 56 | 302 | 0.0 | 0.0 | 0.00 | 0.18 | 0.00 | 98 | 1013.1 |
| 20260905084322 | 56 | 302 | 0.0 | 0.0 | 0.00 | 0.18 | 0.00 | 98 | 1013.1 |
| 20260905083322 | 56 | 302 | 0.0 | 0.0 | 0.00 | 0.18 | 0.00 | 98 | 1013.1 |
| 20260905082323 | 56 | 302 | 0.0 | 0.0 | 0.00 | 0.18 | 0.00 | 97 | 1013.0 |
| 20260905081322 | 57 | 302 | 0.0 | 1.0 | 0.00 | 0.18 | 0.00 | 98 | 1013.0 |
| 20260905080326 | 57 | 302 | 0.0 | 0.0 | 0.00 | 0.18 | 0.00 | 97 | 1013.0 |
| 20260905075325 | 57 | 302 | 0.0 | 0.0 | 0.00 | 0.18 | 0.00 | 97 | 1012.9 |
| 20260905074324 | 57 | 302 | 0.0 | 1.0 | 0.00 | 0.18 | 0.00 | 97 | 1012.9 |
| 20260905073325 | 57 | 302 | 0.0 | 0.0 | 0.00 | 0.18 | 0.00 | 97 | 1012.9 |
| 20260905072324 | 57 | 302 | 0.0 | 0.0 | 0.00 | 0.18 | 0.00 | 97 | 1012.9 |
| 20260905071322 | 56 | 302 | 0.0 | 0.0 | 0.00 | 0.18 | 0.00 | 97 | 1012.9 |
| 20260905070324 | 57 | 302 | 0.0 | 0.0 | 0.00 | 0.18 | 0.00 | 97 | 1012.9 |
| 20260905065343 | 57 | 302 | 0.0 | 0.0 | 0.00 | 0.18 | 0.18 | 97 | 1012.9 |
| 20260905064322 | 57 | 302 | 0.0 | 0.0 | 0.00 | 0.18 | 0.18 | 96 | 1012.9 |
| 20260905063322 | 57 | 302 | 0.0 | 0.0 | 0.00 | 0.18 | 0.18 | 96 | 1012.9 |
| 20260905062321 | 57 | 302 | 0.0 | 0.0 | 0.00 | 0.18 | 0.18 | 96 | 1012.8 |
| 20260905061322 | 57 | 302 | 0.0 | 0.0 | 0.00 | 0.18 | 0.18 | 96 | 1012.8 |
| 20260905060345 | 57 | 302 | 0.0 | 0.0 | 0.00 | 0.18 | 0.18 | 96 | 1012.8 |
| 20260905055323 | 57 | 302 | 0.0 | 0.0 | 0.00 | 0.18 | 0.18 | 96 | 1012.9 |
| 20260905054322 | 57 | 302 | 0.0 | 0.0 | 0.00 | 0.18 | 0.18 | 96 | 1012.9 |
| 20260905053320 | 58 | 302 | 0.0 | 0.0 | 0.00 | 0.18 | 0.18 | 96 | 1012.9 |
| 20260905052323 | 58 | 302 | 0.0 | 0.0 | 0.00 | 0.18 | 0.18 | 96 | 1012.8 |
| 20260905051323 | 58 | 302 | 0.0 | 0.0 | 0.00 | 0.18 | 0.18 | 96 | 1012.6 |
| 20260905050321 | 58 | 302 | 0.0 | 0.0 | 0.00 | 0.18 | 0.18 | 95 | 1012.6 |
| 20260905045320 | 58 | 302 | 0.0 | 0.0 | 0.00 | 0.18 | 0.18 | 95 | 1012.7 |
| 20260905044319 | 58 | 302 | 0.0 | 0.0 | 0.00 | 0.18 | 0.18 | 95 | 1012.6 |
| 20260905043339 | 58 | 302 | 0.0 | 0.0 | 0.00 | 0.18 | 0.18 | 95 | 1012.6 |
| 20260905042318 | 58 | 302 | 0.0 | 0.0 | 0.00 | 0.18 | 0.18 | 95 | 1012.5 |
| 20260905041318 | 58 | 302 | 0.0 | 0.0 | 0.00 | 0.18 | 0.18 | 95 | 1012.4 |
| 20260905040317 | 58 | 302 | 0.0 | 0.0 | 0.00 | 0.18 | 0.18 | 95 | 1012.4 |
| 20260905035337 | 58 | 302 | 0.0 | 0.0 | 0.00 | 0.18 | 0.18 | 95 | 1012.2 |
| 20260905034315 | 58 | 302 | 0.0 | 0.0 | 0.00 | 0.18 | 0.18 | 95 | 1011.9 |
| 20260905033315 | 59 | 302 | 0.0 | 0.0 | 0.00 | 0.18 | 0.18 | 95 | 1011.9 |
| 20260905032313 | 59 | 302 | 0.0 | 0.0 | 0.00 | 0.18 | 0.18 | 95 | 1011.8 |
| 20260905031332 | 59 | 302 | 0.0 | 0.0 | 0.00 | 0.18 | 0.18 | 94 | 1011.4 |
| 20260905030312 | 58 | 302 | 0.0 | 0.0 | 0.00 | 0.18 | 0.18 | 94 | 1011.4 |
| 20260905025311 | 58 | 302 | 0.0 | 0.0 | 0.01 | 0.18 | 0.18 | 93 | 1011.4 |
| 20260905024311 | 59 | 302 | 0.0 | 0.0 | 0.01 | 0.18 | 0.18 | 92 | 1011.3 |
| 20260905023316 | 59 | 302 | 0.0 | 0.0 | 0.01 | 0.18 | 0.18 | 92 | 1011.3 |
| 20260905022316 | 59 | 302 | 0.0 | 0.0 | 0.03 | 0.18 | 0.18 | 91 | 1011.3 |
| 20260905021315 | 60 | 309 | 0.0 | 0.0 | 0.04 | 0.18 | 0.18 | 91 | 1011.3 |
| 20260905020315 | 60 | 309 | 0.0 | 0.0 | 0.04 | 0.18 | 0.18 | 90 | 1011.3 |
| 20260905015333 | 60 | 309 | 0.0 | 0.0 | 0.03 | 0.17 | 0.17 | 89 | 1011.0 |
| 20260905014313 | 61 | 309 | 0.0 | 4.0 | 0.03 | 0.17 | 0.17 | 87 | 1011.0 |
| 20260905013330 | 61 | 296 | 0.0 | 7.0 | 0.03 | 0.17 | 0.17 | 84 | 1011.0 |
| 20260905012328 | 63 | 268 | 3.0 | 10.0 | 0.01 | 0.15 | 0.15 | 79 | 1010.9 |
| 20260905011330 | 64 | 270 | 0.0 | 3.0 | 0.01 | 0.14 | 0.14 | 79 | 1010.6 |
| 20260905010329 | 64 | 219 | 0.0 | 0.0 | 0.04 | 0.14 | 0.14 | 81 | 1010.6 |
| 20260905005327 | 65 | 219 | 0.0 | 0.0 | 0.04 | 0.14 | 0.14 | 78 | 1010.4 |
| 20260905004327 | 65 | 219 | 0.0 | 0.0 | 0.04 | 0.14 | 0.14 | 79 | 1010.3 |
| 20260905003328 | 63 | 219 | 0.0 | 0.0 | 0.04 | 0.14 | 0.14 | 81 | 1010.3 |
| 20260905002328 | 63 | 219 | 0.0 | 6.0 | 0.04 | 0.14 | 0.14 | 84 | 1010.3 |
| 20260905001312 | 65 | 256 | 4.0 | 14.0 | 0.03 | 0.13 | 0.13 | 76 | 1009.8 |
| 20260905000313 | 67 | 319 | 0.0 | 3.0 | 0.00 | 0.10 | 0.10 | 69 | 1009.8 |
| 20260904235314 | 68 | 360 | 1.0 | 5.0 | 0.00 | 0.10 | 0.10 | 66 | 1009.5 |
| 20260904234312 | 67 | 271 | 0.0 | 0.0 | 0.00 | 0.10 | 0.10 | 65 | 1009.7 |
| 20260904233312 | 66 | 271 | 0.0 | 6.0 | 0.00 | 0.10 | 0.10 | 73 | 1009.7 |
| 20260904232313 | 65 | 250 | 2.0 | 5.0 | 0.01 | 0.10 | 0.10 | 69 | 1009.7 |
| 20260904231352 | 65 | 246 | 0.0 | 10.0 | 0.01 | 0.10 | 0.10 | 71 | 1009.3 |
| 20260904230330 | 66 | 193 | 0.0 | 0.0 | 0.01 | 0.10 | 0.10 | 71 | 1009.3 |
| 20260904225329 | 66 | 193 | 0.0 | 0.0 | 0.01 | 0.11 | 0.10 | 69 | 1009.3 |
| 20260904224327 | 66 | 192 | 0.0 | 1.0 | 0.01 | 0.11 | 0.10 | 71 | 1009.4 |
| 20260904223349 | 65 | 186 | 0.0 | 13.0 | 0.01 | 0.11 | 0.10 | 75 | 1009.4 |
| 20260904222326 | 69 | 151 | 2.0 | 11.0 | 0.00 | 0.10 | 0.09 | 61 | 1008.9 |
| 20260904221327 | 70 | 200 | 1.0 | 10.0 | 0.00 | 0.10 | 0.09 | 56 | 1008.9 |
| 20260904220328 | 69 | 123 | 1.0 | 7.0 | 0.00 | 0.10 | 0.09 | 52 | 1008.9 |
| 20260904215348 | 69 | 178 | 0.0 | 4.0 | 0.00 | 0.13 | 0.09 | 54 | 1008.9 |
| 20260904214326 | 69 | 129 | 0.0 | 5.0 | 0.00 | 0.13 | 0.09 | 55 | 1008.8 |
| 20260904213325 | 69 | 173 | 1.0 | 6.0 | 0.00 | 0.13 | 0.09 | 54 | 1008.8 |
| 20260904212323 | 69 | 217 | 2.0 | 5.0 | 0.00 | 0.13 | 0.09 | 54 | 1008.9 |
| 20260904211325 | 67 | 250 | 4.0 | 11.0 | 0.00 | 0.13 | 0.09 | 56 | 1009.0 |
| 20260904210327 | 66 | 211 | 0.0 | 6.0 | 0.00 | 0.13 | 0.09 | 65 | 1009.0 |
| 20260904205327 | 65 | 242 | 1.0 | 7.0 | 0.00 | 0.13 | 0.09 | 72 | 1008.9 |
| 20260904204324 | 65 | 256 | 1.0 | 6.0 | 0.00 | 0.13 | 0.09 | 70 | 1009.0 |
| 20260904203346 | 67 | 269 | 3.0 | 10.0 | 0.00 | 0.13 | 0.09 | 65 | 1009.0 |